Wind_Speed
13 13 13 14 14 15 16 16 17 17 18 19 21 23 25 26 25 24 24 24 23 22 22 20 18 16 14 13 12 11 11 11 12 12 13 13 13 14 14 15 16 17 18 18 18 18 17 17 18 18 19 19 19 20 20 21 22 23 24 25 25 25 26 27 28 28 29 29 29 28 27 26 26 26 26 27 26 25 24 24 24 24 24 25 26 27
13 14 13 13 14 15 16 16 16 16 17 17 19 20 22 24 24 24 23 23 23 23 22 22 20 19 18 17 16 14 13 13 13 13 14 15 16 16 16 17 17 18 18 19 19 19 19 19 19 20 21 21 22 22 23 24 24 25 26 27 27 27 27 28 28 29 30 31 31 31 30 29 28 28 28 28 28 27 26 25 25 25 26 26 27 29
14 14 14 13 14 15 16 16 16 16 16 16 17 18 20 21 23 23 23 22 23 23 22 22 21 20 20 19 18 17 16 15 14 14 15 17 18 17 17 18 18 18 19 19 20 21 21 20 21 21 22 23 24 24 25 25 26 27 28 29 29 29 29 30 30 31 32 32 33 32 32 32 31 31 31 30 31 30 29 28 27 26 26 27 27 28
15 15 15 14 14 14 15 16 16 16 16 16 16 17 18 19 21 22 23 22 22 22 22 22 22 21 21 20 20 20 19 17 16 15 16 17 18 19 19 18 19 19 20 20 20 21 22 22 23 23 23 24 25 26 26 27 28 28 29 30 30 31 31 32 33 34 34 34 34 34 34 34 33 33 33 33 33 33 33 32 31 29 28 28 28 28
16 16 16 15 15 14 15 15 16 16 17 17 17 17 17 18 19 20 22 22 22 22 21 21 21 21 21 21 21 21 21 20 19 17 17 17 19 20 21 20 20 20 21 21 21 22 23 24 25 25 26 27 27 28 28 29 29 30 30 31 31 32 33 33 34 35 36 37 37 37 37 37 37 37 37 37 36 35 35 35 35 34 34 33 32 31
17 17 17 17 16 15 15 15 15 16 16 17 17 17 17 17 18 19 20 21 22 22 21 20 21 20 20 20 20 21 21 21 21 20 19 18 19 21 22 22 22 22 23 23 23 23 24 25 26 27 27 28 29 30 31 31 32 32 33 33 34 34 34 35 36 37 37 38 38 38 38 39 39 39 39 40 40 39 38 37 36 37 37 38 38 37
19 19 19 18 17 17 17 17 16 16 16 17 18 18 18 18 18 19 19 19 20 21 21 21 20 20 20 19 19 20 20 20 20 20 20 19 20 21 22 23 23 24 24 25 25 25 26 27 28 28 29 29 30 32 33 34 34 35 35 36 36 37 37 38 38 39 39 39 39 39 39 40 40 41 41 41 42 41 41 40 39 38 38 39 40 41
20 20 20 20 19 19 19 18 18 17 17 17 18 18 18 19 19 19 19 19 19 19 20 21 21 20 19 19 19 19 19 20 20 20 20 20 21 22 23 24 24 24 25 26 27 27 28 28 29 30 30 31 31 32 34 35 36 36 37 37 38 39 39 40 41 41 41 41 41 41 41 41 42 43 43 44 44 44 43 43 42 41 40 40 41 41
22 22 21 21 21 21 20 20 20 19 18 18 19 19 19 20 20 20 20 20 20 19 19 20 21 21 20 20 20 20 20 20 20 20 20 20 21 22 23 24 25 25 26 26 27 28 28 29 30 31 32 33 33 33 34 36 37 38 38 38 39 40 41 42 42 43 43 43 43 43 42 43 43 44 45 45 45 45 45 45 45 44 43 43 43 43
25 24 23 22 22 22 22 22 22 21 20 20 20 21 21 21 21 21 21 21 21 21 20 20 21 21 21 21 21 21 21 21 21 21 21 21 21 22 23 24 25 25 26 27 28 29 29 30 30 32 33 34 35 35 35 36 38 39 39 40 40 40 41 42 42 43 43 43 43 43 43 44 44 45 45 46 46 45 45 45 46 46 46 46 46 46
27 26 24 23 23 23 23 23 23 23 22 22 22 23 23 23 24 23 23 23 22 22 21 21 21 21 21 21 22 22 22 22 22 22 22 22 23 23 23 24 26 27 27 28 29 30 30 31 31 32 33 34 35 36 37 38 39 40 41 41 41 41 41 41 42 42 42 43 43 44 44 45 45 46 46 46 46 46 46 45 46 46 47 47 47 47
30 28 26 25 24 24 25 25 25 25 24 24 23 24 25 25 26 26 25 25 24 24 23 22 22 22 21 21 23 23 23 24 24 23 23 23 24 25 25 26 27 28 29 29 30 31 32 33 33 33 33 34 35 36 37 39 40 42 42 43 42 42 42 42 42 43 43 44 44 45 45 46 46 47 47 47 47 47 46 46 46 47 47 48 48 48
32 30 29 27 25 25 25 26 26 26 26 25 25 26 26 27 28 28 28 28 27 26 25 25 24 24 23 22 23 24 25 25 26 26 25 25 25 26 27 27 28 30 31 31 31 32 34 35 35 35 35 36 36 37 38 39 41 42 43 44 44 44 44 44 44 44 45 45 45 45 46 46 47 47 48 48 48 48 48 47 47 48 48 49 49 50
34 33 31 29 27 27 26 26 27 28 28 27 27 28 28 29 30 30 31 31 30 29 28 28 27 27 25 24 24 25 26 26 27 28 28 28 27 28 29 29 29 31 33 33 33 34 35 36 37 38 38 38 38 39 39 40 41 43 44 45 45 46 46 46 46 46 46 46 46 46 46 46 47 47 48 48 48 49 49 49 49 49 50 50 50 51
37 36 34 31 29 29 28 27 27 28 29 29 29 29 30 31 31 32 32 33 33 32 32 31 30 29 28 27 26 26 27 27 28 29 30 31 31 30 31 31 31 32 33 34 35 35 36 37 38 39 39 40 40 41 41 42 43 44 45 46 46 47 47 47 47 48 48 48 48 48 48 47 47 48 48 48 49 49 49 50 50 50 50 51 51 52
40 38 36 33 32 32 31 29 29 29 30 30 30 30 31 32 33 33 33 34 34 35 35 34 33 32 31 30 29 28 28 29 29 30 31 33 34 33 33 32 33 33 34 35 36 37 38 39 39 40 41 42 42 43 43 43 44 45 47 48 48 48 49 49 49 49 49 49 50 50 50 49 49 49 49 49 49 49 50 50 50 50 51 51 52 54
42 40 38 35 34 34 33 32 31 31 31 32 31 31 32 33 34 34 34 35 36 36 37 37 36 36 35 33 33 32 31 31 31 31 32 33 35 36 36 35 35 35 36 36 37 38 39 40 41 42 43 44 45 45 45 45 45 47 48 49 50 50 50 50 50 50 50 50 51 51 51 51 50 50 50 50 50 50 50 50 50 51 51 52 53 55
45 42 40 39 37 37 36 35 34 33 33 33 33 33 34 34 34 35 36 37 38 38 39 39 38 39 38 37 36 36 34 34 34 34 34 35 36 38 38 38 38 38 38 38 39 40 41 41 42 43 45 46 47 47 47 47 47 48 50 51 51 51 51 52 52 52 52 51 51 52 52 52 52 52 52 52 51 51 51 51 51 51 52 53 54 56
47 45 43 42 41 40 39 37 37 36 36 35 35 35 35 36 35 36 37 38 39 40 40 41 40 40 40 40 40 40 39 38 37 37 37 37 38 39 40 40 40 40 40 40 41 42 43 43 44 45 46 48 48 49 49 49 48 49 51 53 54 53 53 53 53 54 53 53 53 53 53 53 53 53 52 53 52 52 52 52 52 52 52 53 54 57
50 48 46 45 44 42 41 41 40 39 38 37 37 37 37 37 37 37 38 40 41 42 42 43 42 41 41 41 41 42 42 42 41 41 40 40 41 41 42 43 43 43 43 43 43 44 45 45 46 47 48 49 50 51 51 51 50 51 53 55 56 55 55 55 55 55 55 55 54 54 54 54 54 53 53 53 53 53 53 53 53 52 53 54 55 58
53 51 49 47 47 45 44 44 43 41 40 40 40 39 39 39 38 38 40 41 42 43 44 45 45 43 41 42 42 43 44 44 44 43 43 43 43 44 44 45 45 45 45 45 45 46 47 48 48 49 50 51 52 53 53 52 52 54 56 58 58 57 57 57 57 56 56 55 55 55 55 55 54 54 53 54 54 54 54 54 53 53 54 55 57 59
56 54 52 49 49 48 47 46 46 44 43 43 42 41 40 40 40 41 42 43 44 45 46 47 47 45 43 43 44 45 45 45 45 45 45 45 45 46 46 47 48 48 48 48 48 48 49 50 50 51 52 53 54 54 55 55 55 57 58 59 59 59 59 59 58 57 57 56 56 56 55 56 55 55 54 54 54 55 54 54 53 54 55 57 59 61
58 57 54 52 52 51 50 49 48 46 45 45 44 43 41 41 42 42 44 45 45 46 47 49 50 49 46 45 46 46 46 46 46 46 46 46 47 47 48 49 50 50 50 50 50 50 51 51 52 53 54 55 56 56 57 57 58 60 60 60 61 60 60 60 58 57 57 57 57 56 56 56 56 56 55 55 55 55 55 54 54 55 57 59 61 63
60 59 56 54 54 54 52 51 50 49 48 47 46 44 42 43 43 44 45 46 47 48 49 50 52 52 49 48 48 48 48 48 48 48 48 48 48 49 50 50 51 52 52 53 53 53 53 53 54 54 55 56 57 58 59 59 61 61 61 61 62 62 62 61 59 58 58 58 58 57 57 57 57 57 56 56 56 56 55 55 55 57 59 62 64 65
61 60 59 57 56 55 55 54 53 53 52 48 46 46 45 44 44 44 46 47 49 50 50 51 54 54 53 51 51 49 49 50 50 50 50 50 49 50 51 52 53 53 54 54 55 55 55 55 55 57 58 58 59 60 61 62 62 63 62 62 63 63 63 62 60 59 59 58 58 58 58 57 57 57 57 57 57 57 56 56 57 59 61 64 66 66
62 61 60 59 58 57 57 56 56 56 53 49 48 49 47 46 46 46 47 48 50 51 52 53 55 56 55 55 53 51 51 51 52 52 52 52 51 51 52 53 54 55 56 56 56 56 56 57 57 59 60 60 61 62 63 63 64 64 63 64 64 65 64 63 61 60 59 59 59 58 58 58 58 57 57 57 57 57 57 58 59 61 63 65 67 68
63 62 62 61 60 60 59 58 59 58 54 52 52 51 49 48 48 48 48 49 51 52 53 55 57 57 58 57 55 53 53 54 55 54 54 54 54 54 54 55 56 57 58 58 58 58 58 59 60 61 62 63 64 64 64 65 65 65 64 65 66 66 65 64 62 61 60 59 59 59 59 59 58 57 57 57 58 58 58 59 61 63 65 67 68 69
64 64 64 63 63 62 61 61 61 60 57 55 54 53 52 51 50 50 50 51 52 53 54 57 58 58 60 59 57 55 55 56 57 57 56 56 57 57 57 57 57 58 60 61 60 60 61 61 62 63 64 65 66 66 67 67 67 66 66 67 67 67 66 64 63 62 61 61 60 60 60 59 58 58 57 58 58 59 59 61 63 65 67 69 70 71
66 66 65 65 64 64 63 63 62 61 59 58 56 55 54 53 52 52 52 53 54 55 56 58 59 59 61 61 58 57 58 59 59 59 58 58 59 60 60 60 60 60 61 62 63 63 63 64 64 65 66 67 67 68 69 69 68 67 67 68 68 67 67 66 64 63 63 62 61 61 60 60 59 58 58 58 59 59 61 62 64 67 69 71 72 73
69 68 67 67 66 65 65 65 64 63 62 60 58 57 56 55 55 55 55 55 56 57 58 59 59 60 63 62 60 60 60 60 61 60 60 61 61 62 63 63 63 64 64 64 64 64 65 66 66 67 68 69 69 70 70 70 70 69 69 70 69 68 68 67 65 65 64 63 62 61 61 60 60 59 59 59 60 61 62 64 66 69 71 72 74 76
71 69 68 68 67 67 67 66 66 65 64 62 60 58 57 58 58 58 57 57 58 59 60 60 60 61 63 63 62 63 63 62 63 63 63 63 64 64 65 65 66 66 66 66 66 66 66 67 68 69 70 71 71 71 72 72 71 70 71 71 70 69 69 68 67 66 65 64 63 62 61 61 61 60 60 60 61 63 64 66 68 70 72 74 76 79
72 70 70 70 69 68 69 68 68 67 66 64 62 60 60 61 61 60 59 59 59 60 60 60 61 62 63 63 63 64 64 63 64 64 65 65 66 66 66 66 67 67 68 68 68 68 68 69 70 70 71 72 73 73 73 73 72 73 73 72 71 70 70 69 68 67 66 65 63 62 62 62 62 61 61 61 63 64 67 68 70 71 74 76 79 81
73 72 71 71 70 70 71 71 70 69 67 64 63 63 64 64 63 62 60 60 61 61 60 61 62 63 63 63 64 64 65 65 65 65 66 66 67 67 67 67 68 68 69 70 70 70 71 71 72 72 73 74 75 75 75 74 74 74 74 73 72 71 70 70 69 68 67 65 64 63 63 62 62 62 62 63 64 66 68 69 71 73 76 78 81 83
75 74 73 72 72 72 73 73 71 69 67 65 65 67 68 66 65 64 62 62 62 61 61 62 63 64 64 64 64 65 66 67 67 67 68 68 68 68 68 69 69 70 70 71 72 72 73 73 74 74 75 76 76 77 76 76 75 75 75 74 73 71 70 70 69 69 67 66 65 64 63 63 62 62 63 64 65 67 68 70 72 74 77 80 82 84
77 76 75 74 74 74 75 75 72 69 68 67 69 70 69 68 67 66 64 63 63 62 63 64 65 65 65 66 66 67 68 69 70 70 70 70 70 70 70 71 71 71 72 72 73 74 75 75 75 76 76 77 77 78 78 78 77 77 76 75 73 72 71 70 70 69 68 67 66 65 64 63 63 63 64 65 66 67 69 71 73 75 79 82 84 85
79 77 76 76 75 75 76 75 72 71 70 70 71 71 70 70 70 67 65 64 64 65 66 67 68 68 68 69 69 69 70 70 71 72 72 72 72 72 72 73 73 73 73 74 75 76 76 77 77 78 78 79 79 79 80 80 79 78 77 76 74 73 72 71 70 70 69 67 66 65 64 64 64 64 65 66 67 68 70 72 74 77 80 83 85 86
80 79 78 77 76 76 76 75 74 73 72 71 71 71 71 72 70 67 66 66 67 68 69 69 70 71 71 71 71 71 72 72 73 74 74 74 74 74 74 74 74 75 75 76 76 77 78 78 79 79 80 81 82 82 81 81 81 80 79 77 76 74 73 71 70 70 69 68 67 66 65 65 64 64 65 66 68 69 71 74 76 79 82 85 86 87
81 80 79 78 77 77 76 76 76 75 73 73 72 72 73 73 71 68 68 68 70 71 72 72 73 73 73 73 73 74 74 74 75 74 72 72 74 76 76 76 77 77 78 78 79 79 80 80 81 81 82 83 84 84 83 83 82 81 80 79 77 76 74 72 71 71 70 69 67 66 66 65 65 65 66 68 70 71 73 76 79 81 84 87 89 89
82 81 80 78 78 77 76 77 76 75 74 74 73 72 74 73 72 70 69 69 71 73 74 75 75 75 75 75 75 76 75 76 77 75 74 75 77 79 79 79 79 80 80 81 81 81 82 82 82 83 84 85 85 85 84 84 83 82 81 80 79 78 75 73 72 72 71 69 68 67 66 65 65 66 68 70 72 73 76 79 81 83 86 89 90 91
83 82 80 79 78 78 78 77 76 76 76 75 74 74 75 74 73 72 71 71 73 75 76 78 78 78 77 76 77 77 77 77 78 78 79 80 81 81 81 82 82 83 83 84 84 84 84 84 84 85 86 86 86 86 86 85 84 83 82 81 80 79 76 74 73 72 72 71 69 67 66 66 67 68 70 72 74 76 78 81 83 85 87 90 91 91
83 82 80 79 78 79 79 77 76 77 77 76 76 76 75 74 74 73 72 73 75 76 77 79 80 80 79 78 78 78 78 79 80 80 81 82 82 83 83 84 85 85 85 86 87 87 86 86 86 87 87 87 87 87 86 86 84 83 82 81 80 79 76 74 73 72 72 70 67 66 68 69 70 70 72 74 76 78 80 83 85 87 89 91 92 91
83 81 80 79 79 80 80 78 77 77 77 77 78 78 76 75 75 74 75 76 76 77 78 79 81 81 81 80 79 80 80 81 81 82 82 83 84 85 85 86 86 87 87 88 88 88 88 88 87 88 88 88 88 88 87 86 85 83 82 80 79 78 76 74 73 72 71 68 67 68 71 72 72 73 75 76 78 80 83 85 87 89 91 92 92 91
82 81 81 80 79 80 80 79 79 78 76 77 79 79 77 76 75 76 77 77 77 78 79 81 81 82 82 81 81 81 82 83 83 84 85 85 86 86 87 87 88 88 88 89 90 90 89 89 89 89 89 89 89 89 88 86 84 83 81 80 79 77 75 74 73 71 71 70 70 72 73 73 74 76 77 78 80 82 85 87 89 90 92 92 92 90
83 82 81 80 81 81 81 81 81 80 79 79 80 79 78 78 77 77 78 79 79 80 81 82 82 83 83 82 82 83 83 84 85 86 87 88 88 88 89 89 89 89 90 91 91 91 90 90 90 90 90 90 90 89 88 86 84 83 81 80 78 76 75 74 73 71 71 72 73 74 74 75 77 78 80 81 83 85 87 89 91 92 93 92 91 89
84 83 83 82 83 83 83 83 83 82 81 80 81 80 80 80 80 79 79 80 80 81 82 82 83 84 84 84 85 85 85 86 87 87 88 89 90 90 90 90 90 91 92 92 92 92 92 91 91 91 91 91 90 89 88 86 85 83 81 80 78 76 75 74 73 73 73 73 74 75 76 78 79 81 82 84 85 87 89 91 93 93 93 91 89 86
85 85 85 84 84 85 85 84 83 82 82 82 82 82 81 81 81 81 81 81 82 83 84 84 85 86 86 87 87 87 88 88 88 89 89 89 90 90 91 91 92 92 93 93 93 93 93 93 93 92 92 92 91 89 88 86 85 83 81 79 77 76 75 75 75 75 75 76 77 78 79 81 83 84 85 86 87 89 91 92 93 93 92 90 87 83
85 85 86 86 85 86 86 85 84 84 84 84 84 83 82 82 83 83 83 84 84 85 86 86 86 87 88 88 89 89 89 89 89 89 89 89 90 91 92 92 93 94 95 95 95 94 94 94 93 93 92 91 90 89 87 86 85 83 80 77 74 74 75 76 77 78 78 79 80 81 82 84 85 86 87 88 89 91 91 92 93 91 90 88 84 79
85 86 87 87 87 88 88 86 84 86 87 87 86 85 84 84 84 85 85 86 86 87 87 87 87 88 88 89 89 89 90 90 90 90 91 91 92 92 93 94 95 95 96 96 96 96 95 95 94 94 93 91 90 88 87 85 83 81 79 76 74 75 77 79 79 80 81 82 83 84 86 87 88 88 89 90 91 92 92 91 91 89 87 84 80 74
86 88 88 88 88 90 89 87 85 87 88 88 87 87 87 86 86 86 86 87 87 87 87 87 88 88 88 89 90 90 90 91 92 92 93 93 94 95 95 96 96 96 96 97 97 97 97 96 96 94 93 91 89 87 86 84 81 79 78 77 77 78 79 80 81 83 83 85 86 87 88 89 90 90 92 92 92 92 91 90 89 87 83 80 76 69
87 89 89 89 90 91 90 87 86 88 89 88 88 88 88 88 88 88 88 88 88 88 88 89 89 89 89 90 91 92 92 93 95 95 96 96 96 97 97 97 97 97 97 97 98 98 98 97 96 94 92 90 88 85 83 81 79 78 78 79 79 80 81 82 84 85 86 87 89 90 91 91 92 92 93 93 92 91 89 87 86 83 79 75 71 63
89 89 89 89 90 91 90 88 88 89 90 90 91 90 90 89 89 89 89 89 89 90 90 90 91 91 92 93 94 95 95 97 98 98 98 98 98 98 98 97 97 97 98 98 99 98 98 97 95 93 90 88 85 82 80 79 79 79 80 81 82 83 84 85 86 87 89 90 91 92 93 93 93 93 93 92 92 90 87 85 83 79 73 68 63 55
Wind_Direction
320 321 325 334 342 348 355 2 8 15 18 19 20 22 23 24 26 27 28 29 30 31 32 34 34 30 25 22 19 16 15 13 11 8 5 4 4 2 357 353 352 350 348 347 344 341 337 332 327 324 322 320 319 319 319 319 320 321 321 322 323 323 323 323 323 323 322 322 321 320 320 322 328 332 331 330 328 326 321 316 310 301 291 279 271 267
312 316 319 325 333 339 345 352 359 5 10 14 16 18 21 23 25 25 25 26 28 29 30 31 33 33 30 29 28 24 18 14 9 3 359 358 358 357 353 351 350 347 345 343 341 338 335 331 327 324 321 319 318 317 317 317 317 317 317 318 318 319 318 318 318 318 317 316 316 317 318 322 326 328 328 328 327 327 324 320 315 310 304 296 286 278
303 309 313 317 323 330 335 342 348 354 360 6 11 13 16 20 23 24 24 23 24 26 27 27 28 31 30 29 30 29 27 21 14 7 1 358 357 356 352 348 346 344 341 338 336 334 332 329 326 322 319 317 315 314 314 314 315 315 315 315 315 315 315 315 315 315 314 314 314 316 319 322 325 325 325 326 325 325 324 322 319 314 310 306 299 292
295 301 306 310 314 320 326 332 338 343 348 355 3 8 10 14 17 21 22 21 20 21 23 23 23 25 26 25 26 26 26 24 19 12 5 0 358 358 355 350 346 342 339 336 333 330 327 325 323 321 318 316 315 315 315 315 315 314 314 314 315 315 315 315 315 314 314 314 315 317 319 321 322 323 322 322 321 321 321 320 319 316 313 310 306 301
289 293 299 303 306 310 315 321 327 333 338 343 351 359 3 7 10 14 17 19 17 16 17 18 17 18 19 20 20 20 20 19 18 14 8 2 358 357 358 355 350 346 342 339 335 330 327 325 323 321 319 317 317 316 316 315 315 314 314 314 315 315 315 315 314 314 314 315 316 318 320 321 321 321 320 319 318 318 318 318 318 317 315 313 311 307
283 286 291 296 300 302 304 308 314 322 329 335 341 348 353 359 2 5 9 13 14 13 12 12 11 10 11 14 15 15 15 14 13 12 8 2 357 354 354 356 353 350 347 345 342 337 333 330 328 325 323 321 319 318 317 316 315 314 314 315 315 316 315 314 314 314 315 316 317 319 319 319 318 318 317 316 315 315 315 315 315 315 315 314 313 312
278 280 283 288 292 295 295 298 303 310 318 325 331 338 344 349 354 357 359 3 8 9 8 8 7 4 2 3 7 8 9 9 8 8 6 0 355 352 350 351 352 349 347 346 344 341 338 335 332 331 329 326 324 322 320 318 317 316 316 316 316 315 315 314 314 314 315 316 317 317 317 316 315 314 313 312 311 311 312 312 312 312 312 312 312 311
273 275 277 281 286 289 291 293 296 301 308 315 321 328 333 338 343 348 350 353 357 0 2 3 3 2 357 353 354 358 359 0 0 1 2 359 353 350 347 347 348 347 345 343 342 341 338 336 334 332 331 330 327 325 322 320 318 318 317 316 316 315 315 314 314 314 314 315 315 315 315 314 313 312 311 310 310 309 309 309 310 310 311 310 310 309
268 270 272 276 279 284 288 290 293 296 301 307 313 318 324 328 333 338 342 344 347 350 353 355 356 358 358 352 348 348 347 349 351 352 354 355 351 348 344 343 344 343 342 341 340 340 338 336 334 332 331 330 328 326 323 321 319 318 318 317 316 316 315 314 313 313 313 313 313 313 313 312 311 310 309 308 308 308 307 308 308 309 309 309 308 308
264 266 269 271 274 279 284 288 291 293 296 300 305 310 315 319 324 328 333 336 339 341 343 345 346 349 354 352 347 345 342 340 342 343 345 347 346 345 342 340 340 340 340 339 338 338 338 336 334 332 330 329 328 326 324 321 319 318 318 318 317 316 315 313 312 312 311 311 310 309 309 308 307 306 305 305 305 305 305 306 307 308 308 308 308 308
261 263 266 268 270 274 279 283 287 290 293 296 300 304 308 313 316 320 324 327 331 334 335 337 337 339 345 347 345 345 343 338 337 337 337 338 339 339 338 336 336 337 338 338 336 336 336 335 335 332 330 329 328 326 324 321 319 318 318 317 317 315 313 312 311 310 309 308 307 306 306 305 305 304 304 303 303 304 304 305 306 306 307 307 307 308
258 261 263 265 267 270 274 279 283 287 290 293 297 299 302 306 309 313 316 319 322 326 328 330 331 332 337 341 341 341 341 339 337 336 334 333 332 333 333 333 333 333 335 336 335 333 333 333 333 332 331 330 329 326 323 321 319 318 317 317 316 314 313 311 310 309 308 307 307 306 306 305 305 304 304 303 304 304 305 305 305 304 304 304 305 306
256 259 261 263 266 268 271 275 280 283 287 291 295 297 300 302 304 307 309 312 315 318 321 324 326 327 330 334 336 335 336 337 336 335 335 333 330 329 329 331 331 330 332 334 333 332 330 330 331 331 331 331 329 327 324 321 319 317 316 316 315 313 312 311 310 309 308 307 307 306 306 305 305 304 303 303 303 304 304 304 303 303 302 302 303 304
253 256 259 261 263 265 267 271 275 279 283 288 292 295 298 300 301 302 305 307 310 313 315 318 320 323 324 327 330 330 330 332 334 334 334 333 332 329 329 330 330 328 329 330 331 331 329 328 329 330 330 330 330 328 325 322 319 317 316 315 314 312 311 310 309 308 307 307 306 305 305 304 303 303 302 302 302 301 301 301 301 301 301 302 303 304
251 253 256 259 260 263 265 267 270 274 279 283 287 290 293 296 297 299 301 303 306 308 310 312 315 317 319 322 324 325 326 328 330 331 331 331 331 331 331 331 330 328 327 327 328 329 328 327 327 328 329 329 329 329 326 323 321 318 317 316 314 312 310 309 308 307 306 306 305 304 304 303 302 301 300 300 299 299 299 299 300 300 301 302 303 304
251 252 255 257 258 260 263 265 267 270 274 277 280 284 287 290 293 296 298 300 302 304 306 308 310 312 315 318 320 321 322 323 326 328 329 329 329 330 331 331 329 328 326 325 325 326 326 326 326 326 327 328 329 329 327 324 321 319 318 317 315 313 310 309 307 306 306 305 304 303 303 302 301 300 300 299 299 299 299 299 300 301 301 302 303 305
251 252 254 256 256 258 261 263 265 268 270 273 276 280 283 285 289 293 296 298 300 301 302 304 306 308 311 314 316 317 319 320 322 325 326 327 327 328 329 329 329 327 325 324 324 324 325 325 326 325 326 327 328 329 328 326 322 320 319 318 316 314 311 309 308 306 305 304 304 302 302 302 301 300 300 300 300 300 300 301 301 302 302 303 304 306
251 252 253 254 255 257 259 261 264 266 268 271 274 277 279 282 286 290 293 295 297 299 300 302 303 305 308 311 313 314 316 318 319 322 323 324 325 326 327 327 327 326 325 324 324 323 323 324 325 325 324 326 327 328 328 326 323 320 319 318 317 315 313 311 309 308 306 305 304 303 301 301 301 301 301 302 302 303 303 303 303 303 303 304 305 306
251 251 252 254 255 257 259 261 263 264 267 270 272 274 277 280 283 287 290 292 294 296 298 299 300 303 306 309 310 312 314 316 318 320 321 322 324 324 324 325 325 324 324 324 324 323 322 323 323 324 324 325 326 327 327 326 323 320 319 319 319 317 315 313 311 309 307 306 304 303 302 302 302 302 302 303 304 304 305 304 304 304 304 304 305 307
251 251 251 253 255 257 259 261 262 264 266 268 270 272 275 277 280 283 286 288 291 293 294 296 297 300 303 305 307 309 311 314 316 318 319 320 321 322 322 322 323 323 323 323 323 322 322 321 322 323 323 323 324 325 326 326 323 321 319 320 321 320 317 314 312 310 309 307 305 304 304 303 303 303 304 304 305 305 305 305 304 304 304 305 306 307
251 251 251 252 255 257 258 261 263 264 266 267 269 271 273 276 278 280 283 285 288 290 291 293 295 297 299 301 302 304 308 311 313 315 317 318 319 320 320 321 321 322 322 322 322 321 321 321 322 322 322 322 323 324 326 325 323 321 321 321 322 321 318 316 314 312 310 308 307 306 305 305 305 304 305 305 305 305 305 305 305 304 305 306 307 308
250 251 251 252 254 256 258 261 262 264 265 267 268 270 272 275 277 278 281 283 285 288 289 291 293 294 296 298 299 301 304 308 310 312 313 315 317 318 319 319 320 320 321 321 320 320 320 320 321 322 321 321 322 323 325 325 323 322 322 322 322 321 318 317 315 313 311 310 308 307 307 306 306 305 305 306 306 305 305 305 305 305 306 307 308 308
250 251 252 252 253 255 257 259 261 263 265 266 267 269 272 275 276 277 279 281 284 286 288 289 291 292 294 295 296 299 302 305 307 309 311 312 314 315 316 317 318 319 319 319 320 319 319 320 320 320 320 320 321 322 324 324 323 322 322 322 322 320 318 318 316 314 312 311 310 309 308 307 306 306 306 306 306 305 305 305 306 306 307 308 308 309
250 251 252 252 253 254 257 259 261 263 264 265 267 269 271 273 275 277 279 280 282 284 286 287 288 291 293 293 295 297 300 303 305 307 308 310 311 313 315 315 316 317 318 318 318 318 318 319 319 319 319 319 320 321 322 323 323 322 322 322 321 319 319 318 317 314 313 311 310 309 308 307 306 306 306 306 306 305 305 305 306 307 308 308 309 310
250 251 252 253 253 255 256 258 260 261 262 265 268 269 270 271 274 276 278 280 281 283 285 285 286 289 291 292 294 296 299 301 303 305 306 308 310 311 312 313 314 315 316 317 317 317 317 317 317 317 318 318 319 320 321 322 322 321 321 321 320 319 318 318 317 315 313 312 310 309 307 307 306 306 306 306 305 305 305 306 306 307 308 309 309 310
250 251 252 253 254 254 255 257 259 260 262 266 267 268 269 271 273 275 277 278 280 281 283 283 285 288 290 291 293 296 298 300 301 303 305 306 308 309 310 311 312 313 314 315 316 316 316 316 316 316 316 316 317 318 320 321 321 320 321 320 319 319 318 317 316 315 313 311 310 308 307 306 306 306 306 306 305 305 305 306 306 307 308 309 309 310
250 251 252 253 253 253 254 256 258 260 262 264 266 267 269 271 273 275 276 277 278 280 281 282 284 286 288 290 292 296 298 299 300 302 304 305 306 307 308 309 310 311 312 313 314 315 315 314 314 314 315 315 316 317 319 320 320 320 320 319 319 319 318 317 316 315 313 311 309 308 307 306 306 306 306 305 304 304 305 305 306 306 307 309 310 310
250 251 252 252 253 253 254 255 257 259 261 263 265 267 269 270 272 274 275 276 277 278 279 281 283 285 286 289 292 295 296 298 300 302 303 304 305 305 306 308 309 310 311 312 313 314 314 313 313 313 314 314 315 316 318 319 319 319 319 318 319 319 317 316 316 314 312 311 310 308 307 306 306 306 305 304 303 303 304 304 305 306 307 309 310 311
249 250 251 252 253 253 254 255 256 258 260 262 264 267 269 271 273 274 275 275 276 277 279 280 283 284 285 288 292 294 295 297 299 301 302 302 303 304 305 307 308 310 310 311 312 312 312 312 312 312 312 313 314 315 317 318 318 318 318 318 318 318 316 316 315 313 312 311 309 308 307 306 306 305 303 302 302 303 303 304 305 306 308 309 311 313
248 249 251 252 253 253 254 256 257 258 260 262 264 266 269 271 273 273 274 274 276 277 278 280 283 284 285 289 292 293 294 296 298 299 300 301 302 303 305 306 308 309 309 310 310 311 311 310 311 311 311 312 313 315 316 317 318 317 317 317 318 317 315 315 314 313 312 310 309 308 307 305 304 303 302 302 302 302 302 304 305 306 308 311 313 315
248 249 251 252 253 254 255 256 257 259 260 262 264 267 269 271 272 273 273 274 276 277 279 281 283 284 286 290 292 293 295 296 297 298 300 300 302 303 304 305 307 307 308 308 309 309 309 309 310 310 310 311 313 314 315 316 317 316 316 316 317 316 315 314 313 312 311 310 308 307 306 304 303 302 302 302 302 302 303 304 305 307 310 313 315 316
247 249 251 252 253 255 255 256 257 259 261 263 266 268 269 270 271 272 273 274 276 277 280 281 283 283 286 289 291 292 293 294 295 297 298 299 300 301 302 303 304 305 306 306 307 307 308 308 308 309 310 310 312 313 314 316 315 315 315 316 316 315 314 313 312 311 310 309 308 307 305 303 302 302 302 302 302 303 304 305 307 310 313 315 315 315
248 249 250 252 254 255 256 257 258 259 262 264 267 268 268 269 271 273 273 274 275 278 280 281 281 283 285 287 289 289 290 291 292 294 295 296 297 299 300 301 302 303 304 304 305 306 307 307 308 308 309 310 311 312 314 314 314 314 314 314 315 314 313 312 311 310 309 308 307 305 304 303 302 302 302 303 303 303 304 306 309 312 314 315 315 315
248 249 250 252 253 255 256 257 259 260 263 265 266 267 268 270 272 273 273 274 276 277 278 279 279 281 283 285 285 286 287 289 290 291 293 294 296 297 298 299 300 301 302 303 304 305 305 306 307 308 308 309 310 311 312 313 313 313 313 313 313 313 312 311 310 309 308 307 305 304 303 303 303 303 303 303 303 304 305 307 310 312 313 314 314 315
248 249 250 251 253 254 256 258 259 262 263 264 265 266 268 270 271 272 272 274 275 276 276 277 278 280 281 282 282 284 285 287 289 290 292 293 294 296 297 298 299 300 301 302 303 303 304 305 306 307 308 308 309 310 311 312 312 312 312 312 312 312 311 310 309 308 307 305 304 304 304 304 303 303 303 303 303 305 307 309 311 312 313 313 314 315
248 249 250 251 252 254 256 258 260 261 262 263 265 267 269 269 270 271 272 274 274 275 275 276 277 279 279 280 282 283 285 286 288 290 291 292 294 295 296 297 298 299 300 301 302 302 303 304 305 306 307 308 309 310 310 311 311 311 312 312 311 311 309 309 308 306 305 304 304 304 304 303 303 302 302 303 304 306 308 310 311 312 313 313 314 314
248 249 250 251 252 253 256 258 259 260 261 263 265 266 267 268 269 271 272 273 274 274 275 276 277 278 279 281 282 283 285 286 288 289 290 292 293 294 295 296 297 298 299 300 301 301 302 303 304 305 306 307 308 309 310 310 311 311 311 311 310 309 308 308 307 306 304 304 304 303 303 303 302 302 302 304 305 307 309 310 311 312 313 313 313 314
248 249 250 251 252 253 255 257 259 261 262 263 264 265 266 267 269 270 272 273 274 275 275 276 276 278 279 280 282 283 285 286 288 289 290 291 292 294 295 296 297 297 298 299 300 301 302 303 304 305 306 307 308 309 310 310 310 310 310 309 308 308 307 307 306 305 304 303 303 303 302 302 302 303 304 306 307 308 309 311 311 312 313 313 313 314
248 249 250 251 253 254 255 257 259 260 261 262 263 263 265 267 269 270 271 273 273 274 275 276 277 278 279 281 282 284 285 286 287 288 289 290 292 293 294 295 296 297 297 298 299 300 301 302 303 304 305 306 307 308 309 309 309 309 308 308 307 307 307 307 306 305 304 303 303 303 302 303 304 305 306 307 307 309 310 311 311 312 313 313 313 314
248 249 250 251 253 254 255 256 258 259 260 261 262 262 264 266 268 269 271 272 272 273 275 276 277 278 280 281 282 283 285 286 287 288 289 290 292 293 294 295 295 296 297 297 298 299 300 301 303 304 305 306 307 307 307 308 308 307 307 307 306 306 306 306 305 304 303 303 303 303 303 304 305 306 306 307 308 309 310 310 311 312 312 312 313 314
248 249 251 252 253 254 255 256 257 258 259 261 261 262 264 266 268 269 270 271 272 273 275 276 277 279 280 281 282 283 284 285 286 287 288 290 291 292 292 293 294 295 296 297 298 299 300 301 303 303 304 305 306 306 306 306 307 306 306 305 305 305 305 305 304 303 303 303 303 303 304 304 305 306 306 307 308 308 309 310 311 312 312 312 313 314
248 250 251 252 253 254 255 256 256 257 259 261 262 263 264 266 267 269 269 270 271 273 274 275 276 278 279 281 282 283 284 284 285 287 288 289 289 290 291 292 293 294 295 296 297 299 300 301 302 303 304 304 305 305 305 305 305 305 304 304 303 304 304 303 303 303 303 302 303 303 304 304 305 306 306 307 307 308 309 310 311 312 312 312 313 313
248 249 250 251 252 253 254 255 256 256 258 260 261 263 264 265 267 268 269 270 271 271 272 274 276 277 279 280 281 282 283 284 285 286 287 288 289 290 291 292 293 294 295 296 297 298 300 301 302 302 303 303 304 304 304 304 304 303 303 302 302 302 302 301 301 301 301 301 302 303 304 304 304 305 305 306 307 308 309 310 311 312 312 313 313 313
246 248 249 250 252 253 254 255 256 257 258 259 261 263 264 265 265 267 268 269 270 271 273 274 275 277 278 279 280 281 282 284 285 286 286 287 288 289 290 291 292 293 294 295 296 298 299 300 301 301 302 303 303 303 303 303 302 302 301 301 301 301 300 300 300 300 300 301 302 302 303 303 304 304 305 306 307 309 310 311 312 312 313 313 313 313
246 247 249 250 251 252 254 255 256 258 259 259 261 262 263 264 265 266 267 269 270 271 272 274 275 276 277 279 280 281 282 283 284 285 286 287 288 289 290 291 291 292 293 294 296 297 298 299 300 301 301 302 302 302 302 301 301 300 300 300 300 300 299 299 300 300 300 301 301 302 303 303 304 304 305 307 308 310 311 311 312 312 312 313 313 312
246 247 248 249 251 252 254 255 256 258 258 259 260 261 263 264 265 266 267 268 269 270 272 273 274 275 277 278 279 280 281 282 283 284 285 286 287 288 289 290 291 291 293 294 295 296 297 298 299 300 300 301 301 301 300 300 300 299 299 299 300 300 299 299 299 299 300 301 301 302 303 303 303 304 306 307 309 310 311 312 312 312 312 312 312 312
247 248 248 249 250 252 253 254 256 257 258 259 260 261 262 263 265 266 267 268 269 270 272 273 274 275 276 278 279 280 281 281 282 283 284 285 286 287 288 289 290 291 292 294 295 296 297 298 298 299 299 300 299 299 299 299 299 298 298 299 300 299 298 298 299 299 300 301 301 302 302 302 303 305 306 308 309 310 311 312 312 312 312 312 312 312
247 248 248 249 250 251 252 254 255 257 258 259 260 261 262 263 264 266 267 268 269 270 271 272 274 275 276 277 278 279 280 281 282 282 283 284 284 285 287 288 289 290 292 293 294 295 296 297 297 298 298 298 298 298 298 298 297 297 297 298 298 297 297 298 299 299 300 300 301 301 302 302 304 306 307 308 309 310 311 312 312 312 312 311 311 310
247 248 249 250 250 251 253 254 255 257 258 259 260 261 262 263 264 265 266 268 269 270 271 272 273 274 275 276 277 278 279 280 280 281 282 283 284 285 286 287 288 290 291 292 294 294 295 296 296 297 297 297 297 297 296 296 296 296 296 297 297 297 297 298 298 299 299 300 300 301 302 303 305 306 307 309 310 310 312 312 312 312 312 310 310 309
246 247 249 250 251 252 253 254 255 256 258 259 260 261 262 263 264 265 266 267 268 269 271 271 272 273 274 275 276 277 278 279 279 280 281 282 283 284 286 287 289 290 291 292 293 293 294 295 295 295 296 295 295 295 295 295 295 295 295 296 296 297 297 298 298 299 299 300 300 301 303 304 305 306 307 308 309 310 311 311 311 312 311 310 309 309
246 247 248 249 251 253 254 254 255 257 258 260 261 262 262 263 265 266 267 267 269 269 270 271 272 273 274 274 275 276 277 278 279 280 281 282 283 285 286 287 288 289 290 291 292 293 293 294 294 294 294 294 294 293 293 294 294 294 294 295 295 296 297 297 298 299 299 300 301 302 303 304 305 306 307 308 309 310 311 311 311 311 311 309 309 308
Height
11009 11008 11007 11006 11005 11004 11004 11004 11003 11003 11002 11001 11000 10998 10996 10994 10993 10991 10990 10988 10987 10985 10984 10983 10983 10982 10980 10979 10977 10975 10974 10973 10971 10970 10970 10969 10969 10968 10967 10967 10966 10965 10965 10964 10964 10963 10962 10961 10960 10959 10958 10957 10957 10955 10954 10952 10950 10949 10947 10947 10946 10945 10943 10942 10940 10939 10938 10937 10936 10935 10935 10933 10931 10928 10927 10925 10923 10922 10920 10919 10917 10916 10915 10914 10915 10915
11008 11007 11006 11005 11004 11003 11002 11002 11002 11002 11002 11001 11000 10999 10997 10995 10993 10992 10990 10989 10987 10986 10985 10984 10983 10982 10981 10979 10977 10975 10974 10972 10970 10969 10968 10967 10967 10966 10966 10965 10964 10964 10963 10963 10962 10961 10960 10959 10958 10957 10956 10955 10954 10953 10952 10950 10948 10947 10945 10944 10943 10942 10941 10939 10938 10937 10935 10934 10932 10931 10930 10928 10926 10925 10924 10922 10920 10919 10917 10916 10914 10912 10911 10910 10910 10910
11007 11006 11005 11004 11003 11002 11001 11000 11000 11000 11000 11000 10999 10998 10997 10995 10994 10992 10991 10989 10988 10986 10985 10984 10983 10982 10981 10980 10978 10976 10974 10972 10970 10969 10967 10966 10966 10965 10965 10964 10963 10963 10962 10961 10961 10960 10959 10958 10957 10955 10954 10953 10952 10951 10950 10949 10947 10945 10943 10941 10939 10938 10937 10936 10935 10933 10932 10930 10928 10926 10924 10922 10921 10920 10919 10918 10916 10914 10913 10912 10911 10909 10908 10906 10905 10905
11005 11004 11004 11003 11002 11001 11000 10999 10998 10998 10998 10999 10998 10997 10996 10994 10993 10992 10991 10989 10988 10986 10985 10984 10983 10982 10981 10979 10978 10976 10974 10972 10970 10968 10967 10966 10965 10964 10964 10963 10962 10961 10961 10960 10959 10958 10957 10956 10955 10954 10953 10952 10951 10949 10948 10946 10945 10943 10941 10938 10936 10935 10933 10932 10930 10929 10927 10925 10924 10922 10919 10918 10916 10915 10914 10913 10912 10910 10909 10908 10907 10905 10904 10903 10902 10901
11003 11002 11002 11001 11001 11000 10999 10998 10997 10997 10996 10996 10996 10996 10995 10994 10993 10991 10990 10989 10987 10986 10984 10983 10982 10981 10980 10979 10977 10975 10974 10972 10970 10968 10967 10965 10964 10963 10963 10962 10961 10960 10960 10959 10958 10957 10956 10955 10953 10952 10951 10950 10948 10947 10946 10944 10943 10941 10939 10937 10935 10932 10931 10929 10927 10925 10923 10921 10919 10916 10914 10912 10911 10910 10908 10907 10907 10906 10905 10903 10902 10900 10899 10898 10897 10896
11001 11001 11000 10999 10999 10998 10998 10998 10997 10996 10995 10994 10994 10993 10993 10992 10991 10990 10989 10988 10986 10985 10984 10983 10981 10980 10979 10978 10976 10975 10973 10972 10970 10968 10967 10965 10964 10963 10962 10961 10960 10960 10959 10958 10957 10955 10954 10953 10951 10950 10949 10947 10946 10944 10943 10941 10940 10938 10936 10934 10932 10930 10928 10926 10924 10922 10919 10917 10915 10912 10910 10908 10907 10905 10904 10903 10901 10900 10900 10899 10898 10896 10894 10892 10890 10889
10999 10998 10998 10997 10997 10997 10996 10996 10996 10995 10994 10993 10992 10992 10991 10990 10990 10989 10988 10987 10986 10985 10983 10982 10981 10980 10978 10977 10976 10975 10973 10972 10970 10969 10967 10966 10964 10962 10961 10960 10959 10959 10957 10956 10955 10954 10952 10951 10950 10948 10947 10945 10943 10941 10940 10938 10936 10935 10933 10931 10929 10928 10925 10923 10920 10918 10916 10914 10912 10910 10908 10906 10904 10902 10901 10900 10898 10896 10895 10894 10893 10892 10891 10888 10886 10884
10997 10996 10996 10995 10995 10994 10994 10994 10994 10993 10992 10992 10991 10990 10989 10989 10988 10988 10987 10986 10985 10984 10983 10982 10980 10979 10978 10976 10975 10974 10973 10971 10970 10968 10967 10965 10964 10962 10961 10959 10958 10957 10956 10955 10954 10952 10951 10950 10948 10946 10945 10943 10941 10939 10937 10935 10933 10931 10929 10928 10926 10924 10922 10920 10917 10915 10912 10910 10908 10907 10905 10903 10901 10899 10897 10895 10893 10891 10889 10888 10887 10887 10886 10884 10883 10880
10994 10994 10993 10993 10992 10992 10991 10991 10991 10990 10990 10989 10989 10988 10988 10987 10986 10986 10985 10984 10983 10983 10982 10981 10980 10978 10977 10975 10974 10973 10971 10970 10969 10967 10966 10965 10963 10962 10960 10958 10957 10956 10955 10953 10952 10951 10950 10948 10946 10944 10942 10940 10939 10937 10935 10932 10930 10928 10926 10925 10923 10920 10918 10916 10913 10911 10909 10907 10905 10903 10902 10900 10898 10896 10894 10891 10889 10887 10884 10882 10881 10880 10879 10879 10878 10876
10991 10991 10991 10990 10990 10989 10988 10988 10988 10987 10987 10987 10986 10985 10985 10985 10984 10983 10983 10982 10982 10981 10980 10980 10979 10978 10976 10975 10973 10972 10970 10969 10967 10966 10965 10964 10962 10961 10959 10957 10956 10954 10953 10951 10950 10949 10947 10946 10944 10942 10940 10938 10936 10934 10932 10930 10927 10925 10923 10922 10920 10918 10915 10913 10911 10909 10906 10904 10903 10901 10899 10897 10895 10893 10891 10888 10885 10883 10880 10878 10876 10874 10873 10871 10870 10870
10987 10988 10988 10988 10987 10986 10985 10985 10985 10984 10984 10984 10984 10983 10982 10982 10981 10980 10980 10980 10979 10979 10979 10978 10977 10976 10975 10974 10972 10971 10969 10967 10966 10965 10964 10963 10962 10960 10958 10956 10954 10953 10951 10950 10948 10947 10945 10944 10942 10941 10939 10936 10934 10932 10930 10928 10925 10923 10921 10919 10917 10915 10913 10911 10909 10906 10904 10902 10900 10898 10896 10894 10891 10889 10887 10884 10881 10879 10876 10874 10871 10869 10867 10866 10864 10863
10983 10984 10984 10984 10984 10983 10983 10982 10982 10981 10981 10981 10981 10980 10979 10979 10978 10978 10977 10977 10977 10977 10976 10976 10975 10974 10973 10973 10971 10970 10968 10966 10965 10964 10963 10962 10960 10959 10957 10955 10953 10951 10949 10948 10946 10944 10943 10941 10940 10938 10937 10935 10933 10931 10928 10925 10923 10920 10918 10916 10914 10912 10910 10908 10906 10903 10901 10899 10896 10894 10891 10889 10886 10884 10881 10879 10876 10873 10871 10869 10867 10865 10863 10861 10859 10857
10979 10980 10980 10981 10981 10980 10980 10979 10979 10978 10978 10978 10977 10977 10976 10976 10975 10974 10974 10974 10973 10973 10973 10973 10972 10971 10971 10970 10969 10968 10966 10965 10963 10962 10961 10960 10959 10958 10956 10954 10952 10949 10947 10946 10944 10942 10940 10938 10936 10935 10933 10932 10930 10928 10925 10923 10920 10917 10915 10913 10911 10909 10907 10904 10902 10900 10897 10894 10892 10889 10887 10885 10882 10879 10876 10873 10871 10868 10866 10864 10862 10860 10858 10856 10854 10851
10975 10975 10976 10977 10977 10977 10977 10976 10976 10975 10974 10974 10974 10973 10973 10972 10971 10971 10970 10969 10969 10969 10969 10969 10969 10968 10968 10968 10967 10966 10965 10963 10962 10960 10959 10958 10957 10956 10955 10953 10951 10948 10945 10943 10941 10939 10937 10935 10933 10931 10930 10928 10926 10924 10922 10919 10917 10914 10912 10910 10908 10905 10903 10900 10898 10895 10892 10890 10888 10885 10883 10880 10878 10875 10872 10869 10867 10864 10862 10860 10857 10855 10853 10850 10848 10845
10970 10971 10972 10973 10974 10973 10973 10974 10973 10973 10972 10972 10971 10971 10970 10969 10969 10968 10967 10966 10965 10965 10965 10965 10965 10964 10964 10965 10964 10964 10963 10961 10960 10959 10956 10955 10955 10954 10953 10951 10949 10946 10944 10941 10939 10937 10935 10933 10930 10928 10926 10925 10923 10921 10918 10916 10913 10910 10908 10906 10903 10901 10898 10895 10893 10890 10887 10885 10882 10880 10878 10876 10873 10871 10868 10865 10863 10860 10857 10855 10852 10850 10847 10844 10841 10838
10964 10966 10968 10969 10970 10969 10970 10970 10970 10970 10970 10969 10969 10969 10968 10967 10966 10965 10965 10963 10962 10961 10960 10960 10960 10960 10960 10961 10960 10960 10960 10958 10958 10957 10955 10952 10951 10950 10950 10949 10947 10945 10942 10939 10937 10935 10933 10931 10928 10925 10923 10921 10919 10917 10915 10912 10909 10906 10903 10901 10898 10895 10893 10890 10887 10885 10882 10879 10876 10874 10872 10870 10868 10865 10862 10860 10857 10855 10852 10849 10847 10844 10841 10838 10835 10832
10959 10961 10963 10964 10965 10965 10965 10966 10966 10967 10966 10966 10967 10966 10966 10965 10963 10963 10962 10960 10959 10958 10956 10955 10955 10955 10955 10956 10956 10955 10955 10955 10954 10953 10952 10950 10948 10946 10946 10945 10944 10942 10940 10938 10935 10933 10930 10928 10925 10922 10920 10918 10915 10913 10911 10908 10905 10901 10899 10896 10893 10890 10888 10885 10882 10879 10877 10874 10871 10868 10865 10863 10861 10858 10855 10853 10851 10848 10845 10843 10840 10837 10834 10831 10828 10824
10954 10957 10958 10959 10960 10960 10960 10961 10962 10963 10963 10963 10963 10963 10962 10961 10960 10959 10958 10956 10955 10954 10952 10951 10951 10950 10949 10950 10950 10950 10950 10950 10950 10949 10948 10947 10945 10943 10941 10940 10940 10939 10937 10935 10933 10930 10928 10925 10922 10919 10916 10914 10911 10909 10907 10904 10900 10897 10894 10891 10888 10885 10882 10879 10876 10874 10871 10869 10866 10863 10859 10857 10854 10851 10848 10846 10843 10840 10838 10835 10833 10830 10827 10824 10821 10818
10949 10951 10953 10953 10954 10955 10955 10957 10957 10958 10958 10959 10959 10959 10958 10958 10957 10956 10955 10953 10951 10950 10948 10947 10947 10946 10945 10944 10943 10943 10943 10944 10944 10944 10943 10942 10941 10940 10938 10937 10936 10935 10933 10932 10929 10927 10924 10921 10919 10916 10913 10910 10908 10905 10903 10900 10896 10893 10890 10887 10884 10880 10877 10873 10870 10868 10865 10862 10860 10857 10853 10850 10848 10845 10842 10839 10836 10833 10830 10828 10826 10823 10821 10818 10815 10812
10943 10945 10947 10948 10948 10950 10950 10951 10952 10953 10954 10954 10954 10954 10954 10954 10954 10953 10951 10949 10948 10946 10944 10943 10943 10943 10943 10941 10939 10937 10937 10937 10938 10938 10937 10937 10936 10935 10934 10933 10932 10931 10930 10928 10926 10923 10920 10917 10915 10912 10909 10906 10904 10901 10899 10896 10892 10889 10885 10882 10878 10874 10871 10867 10864 10861 10859 10856 10853 10850 10847 10844 10841 10839 10836 10833 10829 10826 10824 10821 10819 10816 10814 10811 10809 10806
10937 10939 10942 10943 10943 10944 10945 10945 10946 10948 10949 10949 10949 10950 10950 10950 10949 10949 10947 10946 10944 10942 10940 10938 10938 10940 10941 10939 10937 10935 10934 10933 10933 10933 10932 10932 10931 10930 10929 10928 10927 10926 10925 10923 10921 10919 10916 10913 10910 10908 10905 10902 10899 10897 10894 10891 10887 10884 10880 10876 10872 10869 10865 10861 10858 10855 10852 10850 10846 10843 10840 10837 10835 10832 10830 10826 10823 10820 10818 10815 10812 10809 10807 10805 10802 10800
10931 10932 10935 10938 10938 10938 10940 10940 10941 10942 10943 10944 10944 10944 10945 10945 10945 10944 10943 10941 10940 10938 10936 10933 10932 10935 10937 10936 10934 10932 10932 10931 10930 10929 10928 10927 10926 10925 10924 10923 10921 10920 10919 10918 10916 10914 10911 10908 10906 10903 10900 10897 10894 10891 10889 10886 10882 10878 10874 10870 10866 10863 10859 10855 10852 10849 10846 10843 10840 10837 10833 10830 10828 10825 10823 10820 10817 10814 10811 10808 10805 10803 10800 10798 10796 10793
10924 10925 10929 10933 10932 10933 10934 10934 10935 10937 10938 10938 10938 10939 10940 10940 10939 10939 10938 10936 10936 10934 10932 10929 10926 10928 10932 10931 10930 10929 10928 10928 10927 10926 10925 10924 10922 10921 10919 10918 10916 10914 10913 10912 10910 10908 10906 10903 10901 10898 10895 10892 10889 10886 10883 10880 10876 10872 10868 10864 10861 10857 10853 10850 10846 10843 10839 10836 10833 10830 10827 10824 10821 10818 10816 10813 10811 10808 10805 10801 10799 10796 10793 10790 10788 10786
10917 10919 10923 10926 10926 10927 10928 10929 10930 10931 10931 10932 10933 10934 10935 10935 10934 10934 10932 10931 10931 10929 10928 10925 10920 10922 10925 10925 10925 10925 10924 10923 10923 10922 10921 10920 10918 10916 10914 10913 10911 10909 10907 10906 10904 10902 10900 10898 10895 10892 10889 10886 10883 10881 10878 10875 10871 10866 10863 10859 10855 10851 10847 10843 10840 10837 10833 10830 10826 10823 10820 10817 10814 10811 10809 10806 10804 10801 10798 10795 10792 10789 10786 10783 10780 10778
10911 10914 10916 10918 10920 10922 10923 10923 10924 10923 10924 10927 10929 10928 10929 10929 10929 10929 10928 10926 10925 10924 10923 10920 10915 10916 10918 10918 10919 10921 10920 10918 10918 10917 10916 10915 10914 10912 10910 10908 10906 10904 10903 10901 10899 10897 10895 10892 10890 10887 10883 10881 10878 10875 10872 10869 10865 10860 10857 10854 10850 10845 10841 10837 10834 10831 10827 10823 10820 10817 10814 10810 10807 10805 10802 10799 10796 10793 10790 10788 10785 10782 10780 10776 10773 10770
10906 10908 10909 10912 10915 10916 10916 10916 10916 10916 10919 10923 10922 10922 10923 10924 10924 10924 10923 10922 10920 10918 10918 10915 10911 10910 10910 10911 10914 10915 10914 10913 10912 10911 10910 10909 10909 10908 10906 10903 10901 10899 10898 10897 10895 10892 10889 10887 10884 10881 10878 10875 10872 10869 10866 10863 10859 10855 10852 10848 10844 10839 10835 10831 10828 10825 10821 10818 10814 10810 10807 10804 10801 10799 10796 10792 10789 10786 10783 10781 10778 10776 10773 10770 10766 10762
10900 10902 10903 10905 10907 10908 10910 10910 10909 10910 10914 10916 10916 10916 10918 10919 10919 10919 10918 10917 10915 10914 10912 10909 10907 10905 10903 10905 10908 10908 10907 10906 10905 10905 10904 10903 10902 10902 10900 10899 10896 10893 10891 10890 10889 10887 10884 10881 10878 10875 10872 10868 10865 10863 10860 10857 10853 10849 10846 10842 10837 10833 10829 10825 10822 10819 10815 10812 10808 10804 10801 10798 10795 10793 10790 10786 10782 10779 10777 10774 10771 10768 10766 10762 10758 10754
10893 10895 10896 10898 10899 10901 10903 10904 10903 10904 10907 10909 10910 10911 10912 10913 10914 10913 10913 10911 10910 10909 10907 10904 10903 10900 10897 10898 10902 10903 10901 10899 10899 10898 10898 10896 10895 10895 10894 10893 10891 10889 10886 10883 10882 10880 10877 10874 10871 10868 10865 10862 10859 10856 10854 10851 10847 10843 10839 10835 10831 10827 10823 10819 10816 10812 10809 10805 10801 10798 10794 10791 10789 10786 10783 10779 10776 10773 10770 10767 10764 10761 10757 10754 10749 10744
10886 10887 10889 10890 10892 10894 10895 10896 10897 10899 10901 10902 10904 10905 10906 10907 10907 10907 10907 10905 10904 10903 10902 10899 10898 10895 10891 10892 10896 10896 10895 10894 10893 10892 10891 10890 10888 10887 10886 10885 10884 10883 10880 10878 10875 10873 10871 10868 10865 10862 10859 10856 10853 10850 10847 10844 10840 10836 10832 10828 10824 10820 10816 10812 10809 10806 10802 10799 10795 10792 10788 10785 10782 10779 10776 10773 10770 10766 10763 10760 10757 10753 10749 10744 10739 10734
10878 10880 10882 10883 10885 10887 10888 10889 10891 10892 10894 10896 10898 10900 10900 10901 10901 10900 10900 10899 10898 10897 10896 10894 10893 10890 10885 10886 10889 10888 10887 10888 10886 10884 10883 10882 10881 10879 10878 10877 10876 10874 10873 10871 10869 10867 10864 10861 10859 10855 10852 10849 10846 10843 10840 10837 10833 10828 10825 10821 10818 10813 10809 10805 10802 10799 10796 10792 10789 10785 10782 10779 10775 10773 10770 10767 10763 10759 10756 10753 10750 10745 10740 10734 10729 10724
10871 10873 10876 10876 10878 10880 10881 10882 10883 10885 10887 10889 10892 10894 10895 10894 10893 10893 10894 10893 10892 10891 10890 10889 10888 10884 10880 10881 10881 10880 10880 10880 10878 10876 10875 10874 10873 10872 10870 10869 10868 10866 10865 10863 10862 10860 10858 10855 10852 10849 10845 10842 10839 10836 10833 10829 10825 10821 10817 10814 10811 10807 10802 10798 10795 10792 10789 10785 10782 10779 10776 10772 10769 10766 10763 10760 10756 10751 10748 10745 10741 10736 10730 10725 10719 10714
10864 10867 10869 10869 10872 10873 10874 10875 10876 10878 10880 10883 10886 10888 10887 10885 10885 10886 10887 10887 10886 10885 10884 10883 10882 10879 10877 10877 10875 10874 10874 10873 10871 10870 10869 10868 10867 10866 10864 10863 10861 10859 10857 10856 10854 10853 10850 10848 10845 10842 10838 10835 10831 10828 10825 10822 10818 10814 10810 10808 10805 10801 10796 10791 10788 10784 10781 10778 10775 10772 10769 10765 10762 10759 10756 10753 10748 10744 10740 10736 10731 10726 10721 10715 10710 10705
10858 10861 10862 10863 10866 10867 10866 10866 10869 10871 10874 10879 10881 10879 10876 10876 10878 10880 10880 10880 10879 10879 10879 10877 10875 10874 10874 10873 10870 10867 10866 10866 10865 10864 10863 10862 10862 10860 10859 10857 10855 10853 10850 10848 10846 10844 10842 10840 10838 10835 10831 10828 10824 10821 10818 10815 10811 10807 10803 10801 10798 10794 10789 10784 10780 10777 10774 10771 10767 10764 10761 10758 10755 10752 10749 10745 10741 10737 10732 10727 10723 10718 10712 10707 10702 10696
10849 10852 10855 10858 10859 10859 10857 10858 10861 10865 10870 10873 10872 10867 10867 10869 10871 10872 10873 10873 10873 10873 10873 10870 10869 10869 10869 10868 10865 10862 10860 10860 10859 10859 10858 10857 10856 10855 10853 10851 10849 10847 10844 10841 10838 10836 10835 10833 10830 10827 10824 10820 10816 10813 10810 10808 10804 10800 10797 10794 10791 10787 10782 10777 10773 10769 10766 10763 10760 10757 10754 10751 10748 10745 10741 10738 10734 10730 10725 10720 10715 10710 10705 10699 10694 10688
10841 10844 10848 10850 10852 10852 10850 10851 10857 10861 10864 10864 10860 10858 10860 10861 10862 10864 10866 10866 10867 10866 10865 10863 10863 10864 10863 10861 10859 10857 10855 10854 10852 10852 10852 10851 10850 10848 10846 10844 10842 10840 10837 10835 10832 10829 10827 10825 10822 10820 10816 10813 10810 10806 10802 10800 10797 10793 10790 10787 10783 10779 10775 10771 10766 10762 10758 10756 10752 10749 10747 10744 10741 10738 10734 10730 10726 10722 10717 10713 10708 10703 10697 10691 10686 10680
10832 10836 10840 10843 10845 10846 10844 10846 10851 10853 10854 10854 10851 10851 10852 10851 10852 10857 10859 10859 10858 10857 10856 10856 10856 10856 10854 10853 10853 10852 10850 10848 10846 10845 10844 10843 10842 10841 10839 10837 10835 10833 10831 10828 10825 10822 10819 10816 10814 10811 10808 10805 10802 10799 10795 10791 10788 10785 10782 10779 10775 10771 10767 10764 10759 10755 10751 10747 10744 10742 10739 10737 10734 10731 10727 10722 10718 10714 10710 10705 10700 10695 10689 10683 10678 10673
10823 10827 10831 10834 10837 10839 10839 10840 10841 10843 10846 10846 10844 10842 10841 10841 10844 10850 10852 10851 10849 10847 10847 10848 10847 10847 10846 10846 10845 10844 10843 10842 10840 10839 10837 10835 10834 10833 10831 10830 10828 10826 10823 10821 10818 10815 10812 10809 10806 10803 10800 10796 10793 10790 10787 10782 10778 10775 10772 10770 10767 10762 10759 10757 10752 10747 10743 10740 10737 10734 10732 10729 10726 10723 10719 10714 10709 10705 10702 10697 10692 10687 10681 10675 10670 10665
10813 10817 10822 10826 10828 10831 10834 10833 10833 10835 10838 10837 10835 10834 10833 10834 10838 10843 10845 10843 10840 10837 10837 10838 10838 10838 10838 10838 10837 10836 10836 10834 10832 10832 10830 10827 10826 10826 10824 10823 10821 10818 10815 10813 10810 10807 10804 10801 10798 10795 10792 10788 10784 10781 10778 10773 10770 10766 10763 10760 10757 10754 10751 10748 10743 10738 10734 10732 10729 10727 10724 10721 10718 10714 10710 10706 10701 10697 10693 10688 10683 10679 10672 10666 10660 10656
10804 10807 10813 10818 10820 10824 10826 10825 10826 10827 10826 10826 10827 10827 10826 10828 10831 10835 10837 10836 10831 10827 10826 10827 10828 10829 10829 10829 10829 10828 10828 10825 10824 10824 10822 10819 10818 10818 10816 10814 10812 10810 10808 10805 10803 10800 10797 10794 10791 10788 10784 10781 10777 10773 10769 10765 10762 10758 10754 10751 10748 10744 10742 10739 10735 10729 10725 10723 10721 10719 10715 10712 10709 10706 10702 10697 10693 10690 10685 10680 10675 10671 10665 10657 10652 10647
10795 10799 10804 10809 10813 10814 10815 10816 10818 10817 10816 10817 10818 10818 10819 10821 10824 10827 10829 10827 10822 10818 10817 10816 10817 10819 10820 10821 10820 10820 10819 10817 10815 10814 10813 10810 10809 10808 10806 10805 10803 10802 10800 10797 10795 10792 10789 10787 10784 10780 10776 10772 10769 10765 10761 10757 10754 10751 10746 10742 10737 10734 10733 10730 10726 10721 10717 10714 10712 10710 10706 10704 10701 10698 10695 10690 10685 10682 10678 10672 10667 10663 10658 10651 10645 10640
10787 10791 10796 10801 10804 10803 10804 10808 10810 10807 10807 10809 10808 10809 10812 10815 10816 10819 10821 10818 10813 10811 10810 10807 10807 10809 10811 10812 10811 10811 10810 10808 10806 10805 10804 10802 10800 10798 10797 10795 10794 10792 10790 10788 10785 10783 10780 10778 10775 10771 10768 10764 10760 10756 10752 10749 10746 10742 10738 10734 10728 10725 10724 10721 10717 10713 10709 10706 10704 10701 10698 10695 10693 10690 10687 10683 10678 10674 10670 10665 10660 10655 10650 10643 10637 10632
10780 10784 10787 10790 10793 10792 10794 10799 10799 10798 10800 10801 10798 10800 10806 10807 10808 10810 10810 10808 10806 10805 10802 10799 10798 10799 10801 10802 10802 10802 10801 10799 10798 10796 10795 10793 10791 10789 10787 10786 10784 10783 10781 10778 10775 10773 10771 10769 10766 10762 10759 10755 10751 10747 10743 10741 10737 10733 10729 10725 10721 10717 10715 10712 10709 10706 10702 10699 10696 10693 10690 10687 10684 10682 10679 10675 10671 10666 10662 10657 10652 10646 10640 10634 10628 10623
10772 10775 10777 10781 10782 10782 10784 10787 10787 10789 10794 10792 10788 10791 10798 10799 10800 10800 10799 10798 10798 10796 10794 10793 10791 10790 10791 10792 10792 10792 10791 10789 10788 10787 10785 10783 10781 10779 10777 10776 10774 10772 10770 10768 10765 10763 10761 10759 10756 10753 10749 10746 10742 10738 10734 10731 10728 10724 10720 10716 10713 10710 10707 10704 10701 10699 10695 10691 10688 10685 10682 10679 10676 10673 10670 10666 10663 10658 10653 10648 10642 10637 10631 10624 10618 10614
10763 10766 10769 10772 10772 10772 10773 10776 10777 10780 10786 10785 10781 10783 10788 10789 10791 10791 10789 10789 10789 10787 10786 10785 10783 10782 10783 10783 10783 10782 10781 10779 10778 10777 10774 10772 10771 10769 10768 10766 10764 10762 10760 10758 10756 10754 10752 10750 10747 10744 10740 10736 10733 10729 10725 10722 10719 10715 10711 10707 10704 10702 10699 10695 10693 10690 10687 10683 10680 10677 10674 10671 10668 10664 10661 10657 10654 10649 10644 10638 10632 10626 10620 10614 10608 10602
10755 10759 10760 10761 10762 10762 10763 10766 10769 10772 10776 10776 10775 10776 10777 10778 10781 10782 10781 10780 10779 10777 10777 10777 10775 10774 10774 10773 10773 10773 10771 10769 10768 10766 10764 10761 10760 10759 10757 10756 10754 10752 10750 10749 10747 10745 10743 10740 10737 10734 10731 10727 10723 10719 10715 10712 10709 10706 10702 10698 10695 10692 10688 10684 10682 10680 10678 10675 10672 10669 10666 10662 10658 10655 10651 10648 10645 10640 10633 10627 10621 10615 10609 10603 10598 10592
10746 10749 10750 10751 10753 10753 10753 10757 10762 10764 10764 10765 10766 10767 10768 10769 10771 10772 10772 10771 10770 10768 10768 10769 10767 10766 10765 10764 10764 10764 10763 10761 10760 10758 10755 10753 10750 10748 10746 10744 10743 10741 10740 10738 10737 10734 10732 10730 10727 10724 10721 10718 10714 10709 10705 10701 10698 10695 10692 10689 10686 10682 10678 10675 10672 10669 10668 10666 10663 10660 10657 10652 10648 10646 10643 10640 10635 10630 10624 10617 10611 10605 10599 10593 10588 10583
10737 10739 10739 10741 10744 10743 10744 10749 10754 10753 10752 10754 10756 10759 10761 10761 10761 10762 10762 10761 10761 10759 10759 10759 10758 10757 10756 10755 10755 10754 10753 10753 10751 10749 10747 10745 10742 10740 10737 10734 10732 10730 10729 10727 10725 10724 10721 10719 10717 10714 10711 10708 10703 10699 10695 10691 10688 10685 10683 10681 10679 10674 10669 10666 10663 10660 10658 10656 10653 10651 10647 10643 10639 10636 10634 10630 10625 10620 10615 10608 10601 10595 10588 10582 10578 10574
10727 10726 10727 10731 10733 10732 10734 10741 10745 10742 10741 10745 10747 10750 10752 10752 10752 10752 10752 10752 10752 10751 10751 10751 10750 10749 10747 10746 10745 10744 10743 10742 10741 10739 10737 10735 10734 10732 10729 10727 10724 10721 10719 10717 10715 10713 10710 10708 10706 10703 10700 10697 10693 10689 10685 10682 10678 10675 10672 10671 10670 10666 10660 10657 10654 10651 10649 10646 10643 10640 10636 10633 10630 10627 10623 10620 10615 10610 10606 10599 10591 10585 10579 10573 10569 10566
10715 10713 10716 10721 10722 10721 10724 10734 10738 10733 10731 10735 10738 10740 10743 10743 10743 10743 10743 10743 10743 10742 10742 10742 10741 10740 10739 10737 10735 10734 10732 10731 10729 10727 10726 10725 10723 10722 10720 10718 10716 10714 10711 10708 10705 10702 10700 10697 10695 10693 10690 10686 10683 10679 10675 10672 10668 10666 10663 10661 10659 10655 10651 10648 10644 10641 10640 10636 10632 10629 10625 10622 10620 10617 10612 10609 10605 10600 10596 10589 10581 10576 10571 10564 10560 10557
10701 10702 10707 10710 10710 10711 10717 10726 10728 10722 10722 10726 10728 10730 10733 10734 10734 10734 10734 10734 10734 10733 10733 10733 10732 10731 10730 10727 10725 10724 10723 10720 10717 10716 10716 10715 10713 10712 10710 10709 10707 10705 10702 10699 10696 10692 10690 10687 10684 10682 10679 10676 10673 10669 10666 10662 10659 10656 10653 10651 10648 10645 10642 10639 10635 10631 10629 10626 10621 10618 10615 10612 10610 10607 10602 10598 10594 10591 10587 10580 10572 10567 10562 10555 10551 10549
10691 10694 10697 10699 10700 10702 10708 10716 10716 10713 10713 10716 10717 10719 10722 10724 10724 10724 10724 10724 10724 10723 10722 10722 10721 10720 10719 10717 10715 10714 10712 10709 10706 10705 10706 10705 10703 10701 10700 10699 10698 10695 10692 10689 10686 10682 10679 10676 10673 10671 10668 10666 10663 10660 10657 10654 10650 10647 10644 10641 10638 10636 10633 10630 10626 10622 10619 10616 10612 10608 10605 10602 10600 10598 10594 10589 10584 10580 10577 10571 10564 10559 10555 10548 10543 10541